Flag for Guatemala Weather past 2 weeks in Guatemala, Guatemala

Now
82 °F

Scattered clouds.


Feels Like: 81 °F
Forecast: N/A
Wind: 16 mph from North

Location: Guatemala Aeropuertola Aurora

Current Time: Mar 5, 2015 at 5:03:19 PM

Latest Report: Mar 5, 2015 at 4:00 PM


Visibility: N/A

Pressure: 30.18 "Hg

Humidity: 37%

Dew point: 54 °F

Location of GuatemalaLocation

Historic Weather in Guatemala — Graph

°F

Guatemala temperature yesterday

Maximum temperature yesterday: 81 °F (at 3:00 PM)
Minimum temperature yesterday: 59 °F (at 4:00 AM)
Average temperature yesterday: 67 °F

Past Weeks' High & Low Weather Summary

 TemperatureHumidityPressure
High84 °F (Mar 5, 2:00 PM)94% (Feb 20, 3:00 AM)30.42 "Hg (Feb 20, 3:00 AM)
Low54 °F (Feb 20, 4:00 AM)32% (Feb 22, 3:00 PM)30.12 "Hg (Mar 4, 4:00 PM)
Average66 °F72%30.28 "Hg
* Reported Feb 18 4:00 PM — Mar 5 4:00 PM, Guatemala, Weather by CustomWeather, © 2015

Note: Actual official high and low records may vary slightly from our data, if they occured in-between our weather recording intervals... More about our weather records

Advertising

Guatemala weather history for previous 24 hours

 ConditionsComfort  
Time TempWeatherWind HumidityBarometerVisibility
4:00 PM
Thu, Mar 5
82 °FScattered clouds.16 mph37%30.18 "HgN/A
3:00 PM82 °FPassing clouds.14 mph35%30.18 "HgN/A
2:00 PM84 °FPassing clouds.18 mph33%30.21 "HgN/A
1:00 PM82 °FPassing clouds.16 mph32%30.21 "HgN/A
12:00 PM81 °FPassing clouds.14 mph37%30.24 "HgN/A
11:00 AM79 °FPassing clouds.9 mph39%30.27 "HgN/A
10:00 AM75 °FPassing clouds.5 mph54%30.27 "Hg5 mi
9:00 AM68 °FSunny.No wind78%30.27 "Hg5 mi
8:00 AM63 °FSunny.No wind88%30.27 "Hg5 mi
7:00 AM59 °FSunny.No wind94%30.24 "Hg5 mi
6:00 AM61 °FPassing clouds.No wind88%30.24 "Hg5 mi
5:00 AM61 °FPartly cloudy.5 mph94%30.21 "Hg5 mi
4:00 AM63 °FPartly cloudy.5 mph88%30.21 "Hg5 mi
3:00 AM63 °FPassing clouds.5 mph88%30.18 "Hg4 mi
2:00 AM63 °FPartly cloudy.7 mph88%30.21 "Hg4 mi
12:00 AM63 °FPassing clouds.7 mph88%30.24 "Hg4 mi
11:00 PM
Wed, Mar 4
64 °FPassing clouds.5 mph83%30.27 "Hg4 mi
10:00 PM66 °FPassing clouds.7 mph78%30.24 "Hg4 mi
9:00 PM66 °FPassing clouds.No wind83%30.24 "Hg4 mi
8:00 PM66 °FPassing clouds.5 mph88%30.21 "Hg4 mi
7:00 PM68 °FPassing clouds.7 mph78%30.18 "Hg5 mi
6:00 PM70 °FScattered clouds.9 mph73%30.15 "Hg5 mi
5:00 PM73 °FScattered clouds.14 mph69%30.12 "Hg5 mi
Weather by CustomWeather, © 2015

See weather overviewHow to use our weather pages